DW7251 Weather Reports


Display with metric or nautical units.
time (UTC)temp
F
wind
direction
speed
MPH
gust
MPH
rain 1hr
in
rain 24hr
in
rain mn
in
humidity
%
barometer
mb
20180221052528 84 45 4.0 8.0 0.00 0.00 0.00 39 1012.1
20180221052013 84 353 4.0 8.0 0.00 0.00 0.00 38 1012.1
20180221051510 85 359 3.0 9.0 0.00 0.00 0.00 38 1012.1
20180221051009 85 83 3.0 9.0 0.00 0.00 0.00 38 1012.2
20180221050456 86 306 2.0 11.0 0.00 0.00 0.00 37 1012.2
20180221045945 86 331 3.0 11.0 0.00 0.00 0.00 37 1012.2
20180221045441 86 57 4.0 11.0 0.00 0.00 0.00 37 1012.3
20180221044920 86 43 4.0 11.0 0.00 0.00 0.00 37 1012.3
20180221044402 86 311 5.0 10.0 0.00 0.00 0.00 37 1012.4
20180221043844 85 70 4.0 10.0 0.00 0.00 0.00 38 1012.5
20180221043338 86 356 4.0 10.0 0.00 0.00 0.00 37 1012.6
20180221042827 85 358 5.0 11.0 0.00 0.00 0.00 37 1012.5
20180221042329 86 70 4.0 11.0 0.00 0.00 0.00 37 1012.7
20180221041819 86 278 4.0 11.0 0.00 0.00 0.00 38 1012.7
20180221041304 85 344 5.0 11.0 0.00 0.00 0.00 38 1012.8
20180221040807 84 5 5.0 11.0 0.00 0.00 0.00 38 1012.8
20180221040302 84 41 5.0 11.0 0.00 0.00 0.00 38 1012.9
20180221035753 84 11 6.0 13.0 0.00 0.00 0.00 39 1013.0
20180221035257 84 38 5.0 13.0 0.00 0.00 0.00 38 1013.0
20180221034754 84 45 4.0 13.0 0.00 0.00 0.00 40 1012.8
20180221034235 84 11 5.0 16.0 0.00 0.00 0.00 40 1013.0
20180221033740 83 19 5.0 16.0 0.00 0.00 0.00 40 1013.2
20180221033246 82 64 5.0 16.0 0.00 0.00 0.00 41 1013.2
20180221032727 82 311 5.0 16.0 0.00 0.00 0.00 41 1013.3
20180221032207 82 10 6.0 13.0 0.00 0.00 0.00 42 1013.3
20180221031702 81 353 7.0 14.0 0.00 0.00 0.00 42 1013.3
20180221031201 80 347 7.0 14.0 0.00 0.00 0.00 43 1013.3
20180221030707 80 358 6.0 14.0 0.00 0.00 0.00 43 1013.3
20180221030155 80 350 7.0 14.0 0.00 0.00 0.00 43 1013.2
20180221025645 80 42 7.0 14.0 0.00 0.00 0.00 44 1013.2
20180221025127 80 21 5.0 14.0 0.00 0.00 0.00 43 1013.2
20180221024612 80 354 6.0 16.0 0.00 0.00 0.00 44 1013.2
20180221024114 79 17 6.0 16.0 0.00 0.00 0.00 45 1013.3
20180221023557 79 25 6.0 16.0 0.00 0.00 0.00 45 1013.4
20180221023058 79 358 6.0 16.0 0.00 0.00 0.00 44 1013.5
20180221022549 78 323 6.0 15.0 0.00 0.00 0.00 45 1013.4
20180221022045 78 25 6.0 15.0 0.00 0.00 0.00 45 1013.6
20180221021536 78 24 7.0 15.0 0.00 0.00 0.00 45 1013.6
20180221021042 79 353 6.0 14.0 0.00 0.00 0.00 45 1013.6
20180221020529 78 3 6.0 15.0 0.00 0.00 0.00 45 1013.6
20180221020019 78 32 7.0 15.0 0.00 0.00 0.00 45 1013.7
20180221015502 78 315 6.0 15.0 0.00 0.00 0.00 45 1013.9
20180221014941 79 7 5.0 15.0 0.00 0.00 0.00 45 1014.0
20180221014419 78 42 5.0 13.0 0.00 0.00 0.00 45 1014.0
20180221013925 78 41 6.0 13.0 0.00 0.00 0.00 45 1014.2
20180221013414 78 45 6.0 13.0 0.00 0.00 0.00 45 1014.3
20180221012858 78 14 5.0 13.0 0.00 0.00 0.00 45 1014.3
20180221012350 78 1 5.0 14.0 0.00 0.00 0.00 46 1014.4
20180221011832 78 73 6.0 14.0 0.00 0.00 0.00 46 1014.4
20180221011310 78 60 6.0 14.0 0.00 0.00 0.00 45 1014.4
20180221010818 78 19 5.0 14.0 0.00 0.00 0.00 45 1014.3
20180221010302 78 4 5.0 13.0 0.00 0.00 0.00 45 1014.6
20180221005742 78 336 5.0 13.0 0.00 0.00 0.00 46 1014.6
20180221005222 77 340 6.0 13.0 0.00 0.00 0.00 46 1014.6
20180221004701 77 18 7.0 16.0 0.00 0.00 0.00 47 1014.4
20180221004154 77 14 8.0 16.0 0.00 0.00 0.00 46 1014.4
20180221003635 76 36 7.0 16.0 0.00 0.00 0.00 46 1014.4
20180221003113 76 10 6.0 16.0 0.00 0.00 0.00 46 1014.6
20180221002614 76 32 7.0 20.0 0.00 0.00 0.00 47 1014.5
20180221002115 76 41 8.0 20.0 0.00 0.00 0.00 47 1014.4
20180221001615 76 3 9.0 20.0 0.00 0.00 0.00 47 1014.6
20180221001121 76 348 9.0 20.0 0.00 0.00 0.00 47 1014.7
20180221000611 76 309 8.0 18.0 0.00 0.00 0.00 46 1014.7
20180221000108 76 52 8.0 16.0 0.00 0.00 0.00 47 1014.8
20180220235552 76 297 7.0 14.0 0.00 0.00 0.00 46 1014.8
20180220235055 75 48 5.0 19.0 0.00 0.00 0.00 47 1014.8
20180220234554 75 43 6.0 19.0 0.00 0.00 0.00 47 1014.8
20180220234035 74 39 7.0 19.0 0.00 0.00 0.00 48 1014.7
20180220233539 74 67 7.0 19.0 0.00 0.00 0.00 48 1014.7
20180220233043 74 39 6.0 16.0 0.00 0.00 0.00 48 1014.8
20180220232523 74 340 7.0 16.0 0.00 0.00 0.00 49 1014.7
20180220232021 74 340 8.0 16.0 0.00 0.00 0.00 49 1014.6
20180220231506 73 5 6.0 14.0 0.00 0.00 0.00 49 1015.0
20180220231010 73 31 6.0 13.0 0.00 0.00 0.00 49 1014.9
20180220230452 73 12 6.0 13.0 0.00 0.00 0.00 49 1015.1
20180220225948 73 36 6.0 11.0 0.00 0.00 0.00 49 1015.0
20180220225430 73 350 5.0 15.0 0.00 0.00 0.00 50 1015.2
20180220224920 73 50 5.0 15.0 0.00 0.00 0.00 50 1015.0
20180220224420 73 297 6.0 15.0 0.00 0.00 0.00 50 1015.0
20180220223913 72 19 6.0 15.0 0.00 0.00 0.00 50 1014.9
20180220223407 72 323 5.0 12.0 0.00 0.00 0.00 50 1014.8
20180220222902 72 8 5.0 15.0 0.00 0.00 0.00 51 1015.1
20180220222343 72 81 5.0 15.0 0.00 0.00 0.00 51 1015.2
20180220221830 72 8 6.0 17.0 0.00 0.00 0.00 51 1015.2
20180220221325 71 12 6.0 17.0 0.00 0.00 0.00 51 1015.0
20180220220806 71 336 6.0 17.0 0.00 0.00 0.00 52 1015.2
20180220220302 71 8 7.0 17.0 0.00 0.00 0.00 53 1015.1
20180220215751 71 15 7.0 17.0 0.00 0.00 0.00 52 1015.1
20180220215254 70 357 6.0 17.0 0.00 0.00 0.00 53 1015.1
20180220214743 70 330 6.0 14.0 0.00 0.00 0.00 53 1015.2
20180220214234 70 45 6.0 13.0 0.00 0.00 0.00 54 1015.1
20180220213720 70 353 5.0 13.0 0.00 0.00 0.00 54 1015.1
20180220213215 70 25 5.0 12.0 0.00 0.00 0.00 55 1015.1
20180220212657 69 15 6.0 12.0 0.00 0.00 0.00 56 1014.8
20180220212144 69 12 5.0 12.0 0.00 0.00 0.00 57 1014.9
20180220211626 68 329 4.0 11.0 0.00 0.00 0.00 59 1014.9
20180220211121 67 294 4.0 12.0 0.00 0.00 0.00 61 1015.0
20180220210618 66 38 3.0 12.0 0.00 0.00 0.00 64 1014.9
20180220210122 65 35 3.0 12.0 0.00 0.00 0.00 68 1014.8
20180220205624 65 21 3.0 12.0 0.00 0.00 0.00 71 1014.7
20180220205107 64 55 2.0 7.0 0.00 0.00 0.00 75 1014.6
20180220204549 63 22 2.0 7.0 0.00 0.00 0.00 78 1014.8
20180220204050 62 1 2.0 5.0 0.00 0.00 0.00 79 1014.5
20180220203537 62 34 1.0 5.0 0.00 0.00 0.00 80 1014.6
20180220203018 61 72 1.0 4.0 0.00 0.00 0.00 80 1014.4
20180220202503 61 59 0.0 3.0 0.00 0.00 0.00 80 1014.4
20180220202010 61 43 0.0 2.0 0.00 0.00 0.00 80 1014.3
20180220201504 61 66 0.0 2.0 0.00 0.00 0.00 80 1014.4
20180220201010 61 62 0.0 0.0 0.00 0.00 0.00 79 1014.3
20180220200511 61 62 0.0 3.0 0.00 0.00 0.00 79 1014.2
20180220195959 61 72 0.0 1.0 0.00 0.00 0.00 79 1013.9
20180220195456 61 69 0.0 4.0 0.00 0.00 0.00 79 1014.0
20180220194953 61 64 0.0 4.0 0.00 0.00 0.00 79 1014.0
20180220194442 61 77 1.0 4.0 0.00 0.00 0.00 79 1013.8
20180220193939 61 74 1.0 4.0 0.00 0.00 0.00 79 1013.8
20180220193418 61 69 1.0 4.0 0.00 0.00 0.00 79 1013.7
20180220192903 61 73 1.0 4.0 0.00 0.00 0.00 79 1013.6
20180220192341 61 50 2.0 4.0 0.00 0.00 0.00 79 1013.6
20180220191820 60 113 1.0 4.0 0.00 0.00 0.00 79 1013.7
20180220191314 60 72 1.0 4.0 0.00 0.00 0.00 79 1013.7
20180220190812 60 56 1.0 4.0 0.00 0.00 0.00 79 1013.7
20180220190251 60 74 1.0 3.0 0.00 0.00 0.00 79 1013.8
20180220185745 60 95 1.0 4.0 0.00 0.00 0.00 79 1013.6
20180220185241 60 60 1.0 4.0 0.00 0.00 0.00 79 1013.7
20180220184738 60 67 1.0 4.0 0.00 0.00 0.00 79 1013.6
20180220184244 60 57 1.0 4.0 0.00 0.00 0.00 79 1013.6
20180220183742 60 57 0.0 3.0 0.00 0.00 0.00 79 1013.6
20180220183247 60 69 0.0 2.0 0.00 0.00 0.00 79 1013.6
20180220182735 60 83 0.0 2.0 0.00 0.00 0.00 78 1013.5
20180220182223 60 62 0.0 2.0 0.00 0.00 0.00 78 1013.5
20180220181706 60 61 0.0 2.0 0.00 0.00 0.00 78 1013.6
20180220181151 61 76 0.0 1.0 0.00 0.00 0.00 78 1013.6
20180220180640 61 90 0.0 0.0 0.00 0.00 0.00 78 1013.5
20180220180148 61 108 0.0 3.0 0.00 0.00 0.00 78 1013.5
20180220175636 61 69 0.0 3.0 0.00 0.00 0.00 78 1013.4
20180220175115 61 86 0.0 3.0 0.00 0.00 0.00 78 1013.4
20180220174616 61 63 0.0 2.0 0.00 0.00 0.00 78 1013.3
20180220174105 61 79 0.0 3.0 0.00 0.00 0.00 78 1013.3
20180220173547 61 72 0.0 3.0 0.00 0.00 0.00 78 1013.3
20180220173026 61 72 0.0 4.0 0.00 0.00 0.00 78 1013.3
20180220172512 61 59 0.0 4.0 0.00 0.00 0.00 78 1013.4
20180220172016 61 58 0.0 1.0 0.00 0.00 0.00 78 1013.4
20180220171522 61 59 0.0 1.0 0.00 0.00 0.00 78 1013.3
20180220171009 61 74 0.0 2.0 0.00 0.00 0.00 78 1013.3
20180220170514 61 132 1.0 6.0 0.00 0.00 0.00 78 1013.4
20180220165957 61 69 1.0 6.0 0.00 0.00 0.00 78 1013.6
20180220165503 61 52 2.0 6.0 0.00 0.00 0.00 78 1013.5
20180220164956 61 57 1.0 6.0 0.00 0.00 0.00 78 1013.6
20180220164500 61 55 1.0 4.0 0.00 0.00 0.00 78 1013.1
20180220164004 61 80 1.0 4.0 0.00 0.00 0.00 78 1013.0
20180220163510 61 77 0.0 4.0 0.00 0.00 0.00 77 1013.0
20180220163003 61 73 0.0 3.0 0.00 0.00 0.00 77 1013.0
20180220162507 61 67 0.0 5.0 0.00 0.00 0.00 77 1013.0
20180220162011 61 59 0.0 5.0 0.00 0.00 0.00 77 1013.0
20180220161515 61 95 0.0 5.0 0.00 0.00 0.00 77 1013.0
20180220160958 61 72 1.0 5.0 0.00 0.00 0.00 77 1013.0
20180220160440 61 80 1.0 4.0 0.00 0.00 0.00 77 1013.0
20180220155946 61 72 0.0 3.0 0.00 0.00 0.00 77 1013.0
20180220155426 61 93 0.0 3.0 0.00 0.00 0.00 77 1013.0
20180220154904 61 62 0.0 3.0 0.00 0.00 0.00 76 1013.0
20180220154345 61 76 1.0 3.0 0.00 0.00 0.00 76 1013.2
20180220153837 61 69 1.0 4.0 0.00 0.00 0.00 76 1013.2
20180220153334 61 32 1.0 4.0 0.00 0.00 0.00 76 1013.3
20180220152833 61 50 1.0 4.0 0.00 0.00 0.00 76 1013.3
20180220152322 61 53 1.0 4.0 0.00 0.00 0.00 76 1013.4
20180220151824 62 37 1.0 5.0 0.00 0.00 0.00 76 1013.4
20180220151327 62 72 1.0 5.0 0.00 0.00 0.00 76 1013.3
20180220150829 62 60 2.0 6.0 0.00 0.00 0.00 75 1013.4
20180220150320 62 69 2.0 6.0 0.00 0.00 0.00 75 1013.3
20180220145802 62 47 2.0 6.0 0.00 0.00 0.00 75 1013.4
20180220145243 62 55 2.0 6.0 0.00 0.00 0.00 75 1013.5
20180220144742 62 36 2.0 5.0 0.00 0.00 0.00 75 1013.5
20180220144225 62 90 2.0 5.0 0.00 0.00 0.00 75 1013.5
20180220143724 62 96 1.0 4.0 0.00 0.00 0.00 75 1013.7
20180220143226 62 91 1.0 5.0 0.00 0.00 0.00 74 1013.6
20180220142707 62 76 1.0 5.0 0.00 0.00 0.00 74 1013.6
20180220142212 62 52 1.0 5.0 0.00 0.00 0.00 74 1013.5
20180220141718 62 62 1.0 5.0 0.00 0.00 0.00 74 1013.6
20180220141206 62 111 1.0 4.0 0.00 0.00 0.00 74 1013.6
20180220140701 63 48 1.0 7.0 0.00 0.00 0.00 74 1013.7
20180220140150 63 72 1.0 7.0 0.00 0.00 0.00 73 1013.8
20180220135656 63 79 2.0 7.0 0.00 0.00 0.00 73 1013.7
20180220135200 63 62 2.0 7.0 0.00 0.00 0.00 73 1013.7
20180220134645 63 100 1.0 6.0 0.00 0.00 0.00 73 1013.8
20180220134142 63 86 1.0 6.0 0.00 0.00 0.00 73 1013.8
20180220133637 63 46 1.0 5.0 0.00 0.00 0.00 73 1013.8
20180220133122 63 53 1.0 5.0 0.00 0.00 0.00 72 1013.9
20180220132609 63 77 0.0 3.0 0.00 0.00 0.00 72 1013.9
20180220132100 64 73 0.0 3.0 0.00 0.00 0.00 72 1014.0
20180220131545 64 57 0.0 3.0 0.00 0.00 0.00 71 1014.1
20180220131028 64 112 1.0 3.0 0.00 0.00 0.00 71 1014.2
20180220130510 64 80 1.0 3.0 0.00 0.00 0.00 71 1014.2
20180220130010 64 88 0.0 3.0 0.00 0.00 0.00 71 1014.3
20180220125501 64 56 0.0 4.0 0.00 0.00 0.00 70 1014.4
20180220124952 64 60 0.0 4.0 0.00 0.00 0.00 70 1014.4
20180220124447 64 70 0.0 4.0 0.00 0.00 0.00 70 1014.4
20180220123949 65 102 0.0 4.0 0.00 0.00 0.00 70 1014.4
20180220123444 65 95 0.0 2.0 0.00 0.00 0.00 70 1014.5
20180220122947 65 342 0.0 4.0 0.00 0.00 0.00 69 1014.5
20180220122434 65 164 0.0 4.0 0.00 0.00 0.00 69 1014.5
20180220121922 65 120 0.0 5.0 0.00 0.00 0.00 68 1014.4
20180220121406 65 121 1.0 5.0 0.00 0.00 0.00 68 1014.5
20180220120853 66 79 1.0 5.0 0.00 0.00 0.00 68 1014.4
20180220120336 66 61 0.0 4.0 0.00 0.00 0.00 67 1014.5
20180220115841 66 38 0.0 4.0 0.00 0.00 0.00 67 1014.5
20180220115336 66 48 1.0 4.0 0.00 0.00 0.00 66 1014.6
20180220114835 66 355 1.0 4.0 0.00 0.00 0.00 66 1014.6
20180220114315 67 55 1.0 9.0 0.00 0.00 0.00 66 1014.4
20180220113758 67 73 3.0 9.0 0.00 0.00 0.00 65 1014.2
20180220113250 67 124 3.0 9.0 0.00 0.00 0.00 65 1014.2
20180220112740 67 80 3.0 9.0 0.00 0.00 0.00 64 1014.2
20180220112233 68 126 2.0 9.0 0.00 0.00 0.00 64 1014.2
20180220111738 68 60 2.0 9.0 0.00 0.00 0.00 64 1014.2
20180220111233 68 31 3.0 9.0 0.00 0.00 0.00 63 1014.2
20180220110714 68 53 3.0 9.0 0.00 0.00 0.00 63 1014.1
20180220110202 68 129 2.0 9.0 0.00 0.00 0.00 62 1014.1
20180220105702 69 86 3.0 9.0 0.00 0.00 0.00 62 1014.1
20180220105152 69 59 3.0 8.0 0.00 0.00 0.00 61 1014.1
20180220104637 69 81 3.0 10.0 0.00 0.00 0.00 61 1014.2
20180220104142 69 14 2.0 10.0 0.00 0.00 0.00 60 1014.1
20180220103635 70 28 2.0 10.0 0.00 0.00 0.00 59 1014.1
20180220103116 70 102 2.0 10.0 0.00 0.00 0.00 59 1014.2
20180220102622 70 74 2.0 9.0 0.00 0.00 0.00 58 1014.1
20180220102115 71 60 2.0 9.0 0.00 0.00 0.00 58 1014.1
20180220101554 71 112 2.0 9.0 0.00 0.00 0.00 57 1014.1
20180220101038 71 79 3.0 8.0 0.00 0.00 0.00 57 1014.0
20180220100532 71 208 3.0 7.0 0.00 0.00 0.00 56 1014.0
20180220100012 71 77 2.0 8.0 0.00 0.00 0.00 56 1014.0
20180220095500 72 106 2.0 8.0 0.00 0.00 0.00 56 1013.9
20180220095007 72 169 2.0 10.0 0.00 0.00 0.00 55 1013.9
20180220094446 72 45 2.0 10.0 0.00 0.00 0.00 55 1013.9
20180220093930 72 176 2.0 10.0 0.00 0.00 0.00 54 1013.9
20180220093437 73 82 3.0 10.0 0.00 0.00 0.00 54 1013.9
20180220092916 73 114 3.0 9.0 0.00 0.00 0.00 53 1014.0
20180220092358 73 66 2.0 9.0 0.00 0.00 0.00 53 1013.9
20180220091323 74 62 2.0 10.0 0.00 0.00 0.00 52 1013.9
20180220090809 74 52 2.0 12.0 0.00 0.00 0.00 51 1013.8
20180220090248 75 58 3.0 12.0 0.00 0.00 0.00 50 1013.6
20180220085749 75 87 3.0 12.0 0.00 0.00 0.00 50 1013.6
20180220085240 76 115 2.0 12.0 0.00 0.00 0.00 49 1013.6
20180220084724 76 46 2.0 10.0 0.00 0.00 0.00 48 1013.6
20180220084223 77 111 3.0 13.0 0.00 0.00 0.00 47 1013.6
20180220083704 77 87 3.0 13.0 0.00 0.00 0.00 46 1013.6
20180220083155 78 124 4.0 13.0 0.00 0.00 0.00 46 1013.6
20180220082640 78 108 4.0 13.0 0.00 0.00 0.00 45 1013.5
20180220082139 79 59 3.0 11.0 0.00 0.00 0.00 44 1013.5
20180220081632 79 119 3.0 11.0 0.00 0.00 0.00 44 1013.4
20180220081117 79 192 4.0 11.0 0.00 0.00 0.00 44 1013.4
20180220080613 80 145 3.0 12.0 0.00 0.00 0.00 44 1013.3
20180220080101 80 95 4.0 12.0 0.00 0.00 0.00 44 1013.3
20180220075557 80 121 4.0 12.0 0.00 0.00 0.00 43 1013.2
20180220075037 81 121 3.0 12.0 0.00 0.00 0.00 42 1013.2
20180220074534 81 157 3.0 11.0 0.00 0.00 0.00 42 1013.1
20180220074034 81 133 3.0 11.0 0.00 0.00 0.00 42 1013.1
20180220073528 81 46 3.0 11.0 0.00 0.00 0.00 42 1013.0
20180220073027 82 146 3.0 10.0 0.00 0.00 0.00 42 1013.1
20180220072528 82 99 3.0 12.0 0.00 0.00 0.00 42 1013.0
20180220072007 82 102 4.0 12.0 0.00 0.00 0.00 42 1013.1
20180220071454 82 143 4.0 12.0 0.00 0.00 0.00 41 1013.2
20180220070946 82 124 3.0 12.0 0.00 0.00 0.00 40 1013.2
20180220070443 83 128 3.0 10.0 0.00 0.00 0.00 41 1013.2
20180220065928 82 80 4.0 13.0 0.00 0.00 0.00 40 1013.1
20180220065432 82 207 5.0 13.0 0.00 0.00 0.00 40 1013.1
20180220064933 83 132 5.0 13.0 0.00 0.00 0.00 40 1013.2
20180220064426 83 60 4.0 13.0 0.00 0.00 0.00 40 1013.2
20180220063923 83 173 4.0 12.0 0.00 0.00 0.00 40 1013.2
20180220063405 83 162 4.0 12.0 0.00 0.00 0.00 39 1013.2
20180220062850 84 148 4.0 13.0 0.00 0.00 0.00 39 1013.2
20180220062346 83 125 4.0 13.0 0.00 0.00 0.00 39 1013.3
20180220061849 84 139 5.0 13.0 0.00 0.00 0.00 39 1013.4
20180220061345 84 96 5.0 13.0 0.00 0.00 0.00 39 1013.4
20180220060836 84 128 3.0 9.0 0.00 0.00 0.00 38 1013.5
20180220060318 84 151 4.0 12.0 0.00 0.00 0.00 38 1013.6
20180220055816 84 207 3.0 12.0 0.00 0.00 0.00 38 1013.6
20180220055314 84 125 4.0 12.0 0.00 0.00 0.00 38 1013.6
20180220054759 84 126 5.0 12.0 0.00 0.00 0.00 37 1013.7
20180220054243 84 136 4.0 10.0 0.00 0.00 0.00 37 1013.7
20180220053728 84 173 3.0 9.0 0.00 0.00 0.00 37 1013.8
20180220053226 84 111 3.0 8.0 0.00 0.00 0.00 38 1013.9